#timestamp,LO_Frequency,Hit,StdDev 
1506193215.4,286046999.2,P
1506193235.2,286046996.3,N
1506193255.0,286046991.5,N
1506193256.0,286046991.5,N
1506193275.8,286046987.7,N
1506193295.6,286046985.4,N
1506193315.4,286046986.8,N
1506193335.3,286046989.7,N
1506193355.1,286046991.1,N
1506193375.8,286046989.2,N
1506193395.7,286046987.7,N
1506193415.5,286046984.1,N
1506193435.3,286046983.3,N
1506193455.2,286046982.5,N
1506193475.9,286046982.7,N
1506193495.7,286046983.1,N
1506193515.6,286046982.8,N
1506193535.4,286046985.1,N
1506193555.2,286046981.8,N
1506193575.0,286046982.4,N
1506193576.0,286046982.4,N
1506193595.8,286046985.2,N
1506193615.6,286046982.1,N
1506193635.4,286046984.4,N
1506193655.3,286046986.5,N
1506193675.1,286046986.5,N
1506193695.8,286046986.5,N
1506193715.7,286046986.5,N
1506193735.5,286046986.2,N
1506193755.3,286046988.3,N
1506193775.2,286046983.7,Y
1506193795.9,286046999.6,P
1506193815.7,286046995.3,N
1506193835.6,286046996.5,N
1506193855.4,286046999.2,N
1506193875.2,286046998.7,N
1506193895.1,286046998.4,N
1506193896.0,286046998.4,N
1506193915.8,286047000.1,N
1506193935.6,286047001.0,N
1506193955.4,286046996.7,N
1506193975.3,286046997.8,N
1506193995.1,286046993.4,N
1506194015.8,286046995.7,N
1506194035.7,286046995.7,N
1506194055.5,286046994.8,N
1506194075.3,286046989.3,Y
1506194095.2,286046990.7,P
1506194115.0,286046990.1,P
1506194115.9,286046990.1,P
1506194135.7,286046990.7,Y
1506194155.6,286046999.0,P
1506194175.4,286047001.9,N
1506194195.2,286047003.9,N
1506194215.1,286047003.4,N
1506194216.0,286047003.4,N
1506194235.8,286047001.4,N
1506194255.6,286047001.8,N
1506194275.5,286047004.8,N
1506194295.3,286047007.0,N
1506194315.1,286047007.1,N
1506194335.9,286047009.1,N
1506194355.7,286047003.4,N
1506194375.5,286047002.4,N
1506194395.4,286047002.4,N
1506194415.2,286047002.1,N
1506194435.0,286047002.6,N
1506194435.9,286047002.6,N
1506194455.8,286047000.1,N
1506194475.6,286047000.0,N
1506194495.4,286047001.7,N
1506194515.2,286047003.1,N
1506194535.1,286047000.1,N
1506194536.0,286047000.1,N
1506194555.8,286046992.6,N
1506194575.6,286046996.3,N
1506194595.5,286046998.6,N
1506194615.3,286047001.7,N
1506194635.1,286047005.3,N
1506194655.9,286047010.8,N
1506194675.7,286047010.5,N
1506194695.5,286047009.9,N
1506194715.4,286047011.0,N
1506194735.2,286047012.5,N
1506194755.0,286047015.6,Y
1506194755.9,286047015.6,P
1506194775.8,286047011.1,N
1506194795.6,286047016.7,P
1506194815.4,286047018.1,Y
1506194835.3,286047005.0,P
1506194855.1,286047010.7,P
1506194856.0,286047010.7,P
1506194875.8,286047009.0,Y
1506194895.7,286046999.0,P
1506194915.5,286046996.8,N
1506194935.3,286046999.1,N
1506194955.2,286046998.2,N
1506194975.9,286046998.7,N
1506194995.7,286047000.0,N
1506195015.6,286046998.4,N
1506195035.4,286047002.5,N
1506195055.2,286047003.7,N
1506195075.0,286047005.9,N
1506195076.0,286047005.9,N
1506195095.8,286047005.7,N
1506195115.6,286047003.2,N
1506195135.4,286047005.8,N
1506195155.3,286047007.6,N
1506195175.1,286047001.3,N
1506195195.8,286047002.0,N
1506195215.7,286047002.2,N
1506195235.5,286047002.6,N
1506195255.3,286047003.2,N
1506195275.2,286047006.9,N
1506195295.9,286047008.7,N
1506195315.7,286047008.9,N
1506195335.6,286047008.8,N
1506195355.4,286047007.4,N
1506195375.2,286047005.4,N
1506195395.0,286047002.1,N
1506195396.0,286047002.1,N
1506195415.8,286046998.9,N
1506195435.6,286046995.8,N
1506195455.4,286046993.2,N
1506195475.3,286046991.6,N
1506195495.1,286046988.5,N
1506195515.8,286046987.1,N
1506195535.7,286046989.5,N
1506195555.5,286046989.6,N
1506195575.3,286046988.7,N
1506195595.2,286046992.6,N
1506195615.9,286046989.8,N
1506195635.7,286046989.7,N
1506195655.6,286046990.0,N
1506195675.4,286046985.6,N
1506195695.2,286046989.8,N
1506195715.1,286046987.3,N
1506195716.0,286046987.3,N
1506195735.8,286046987.2,N
1506195755.6,286046989.5,N
1506195775.4,286046987.3,N
1506195795.3,286046988.5,N
1506195815.1,286046990.5,N
1506195835.8,286046992.7,N
1506195855.7,286046987.6,N
1506195875.5,286046988.1,N
1506195895.3,286046986.7,N
1506195915.2,286046986.6,N
1506195935.9,286046986.3,N
1506195955.7,286046988.4,N
1506195975.6,286046980.5,Y
1506195995.4,286046988.5,P
1506196015.2,286046987.4,P
1506196035.1,286046989.4,P
1506196036.0,286046989.4,Y
1506196055.8,286047000.7,P
1506196075.6,286046997.7,N
1506196095.5,286046996.5,N
1506196115.3,286046999.8,N
1506196135.1,286047005.6,N
1506196155.9,286047005.4,N
1506196175.7,286047004.1,N
1506196195.5,286046998.9,N
1506196215.4,286046995.2,N
1506196235.2,286046994.7,N
1506196255.0,286046992.4,N
1506196255.9,286046992.4,N
1506196275.7,286046994.8,N
1506196295.6,286046990.1,N
1506196315.4,286046990.4,N
1506196335.2,286046992.0,N
1506196355.1,286046993.8,N
1506196356.0,286046993.8,N
1506196375.8,286046997.9,N
1506196395.6,286046997.6,N
1506196415.5,286046998.0,N
1506196435.3,286046999.1,N
1506196455.1,286046995.2,N
1506196475.9,286046997.9,N
1506196495.7,286046999.2,N
1506196515.5,286046997.8,N
1506196535.4,286046998.6,N
1506196555.2,286046998.6,N
1506196575.0,286047001.4,N
1506196575.9,286047001.4,N
1506196595.7,286047003.7,N
1506196615.6,286047004.0,N
1506196635.4,286047001.4,N
1506196655.2,286047000.7,N
1506196675.1,286046999.6,N
1506196676.0,286046999.6,N
1506196695.8,286046987.9,Y
1506196715.6,286046992.5,P
1506196735.5,286046995.1,N
1506196755.3,286047001.6,N
1506196775.1,286047004.7,N
1506196795.9,286047009.1,N
